GW2692 Weather Reports


time (UTC)temp
F
wind
direction
speed
knots
gust
knots
rain 1hr
in
rain 24hr
in
rain mn
in
humidity
%
barometer
mb
20260508002200 59 316 1.7 2.6 0.00 0.48 0.01 43 966.4
20260508001701 60 308 1.7 5.2 0.00 0.48 0.01 43 966.3
20260508001200 60 321 1.7 5.2 0.00 0.48 0.01 44 966.2
20260508000700 60 315 1.7 4.3 0.00 0.48 0.01 44 966.1
20260507235200 61 318 1.7 6.1 0.00 0.58 0.01 44 965.9
20260507234701 61 325 2.6 7.0 0.00 0.60 0.01 43 965.8
20260507234201 61 306 1.7 5.2 0.00 0.70 0.01 44 965.8
20260507233201 61 310 1.7 5.2 0.00 0.74 0.01 45 965.6
20260507232700 62 306 1.7 4.3 0.00 0.74 0.01 46 965.6
20260507231701 64 319 1.7 5.2 0.00 0.74 0.01 44 965.3
20260507231200 65 315 2.6 7.0 0.00 0.74 0.01 44 965.1
20260507230701 65 325 2.6 6.1 0.00 0.74 0.01 49 965.1
20260507230201 64 292 0.9 2.6 0.00 0.74 0.01 59 965.0
20260507225700 63 331 1.7 5.2 0.00 0.74 0.01 61 965.0
20260507225200 63 324 0.9 2.6 0.00 0.74 0.01 64 964.9
20260507223701 63 52 0.9 2.6 0.00 0.74 0.01 68 964.9
20260507223201 63 117 1.7 2.6 0.00 0.74 0.01 64 964.7
20260507221701 62 228 0.0 1.7 0.00 0.74 0.01 66 964.6
20260507221201 62 106 0.9 1.7 0.00 0.74 0.01 66 964.6
20260507220701 63 123 1.7 2.6 0.00 0.74 0.01 65 964.5
20260507220201 63 78 0.9 1.7 0.00 0.74 0.01 64 964.5
20260507215201 64 86 0.9 4.3 0.00 0.74 0.01 61 964.4
20260507214700 64 160 0.9 1.7 0.00 0.74 0.01 62 964.4
20260507214201 65 115 2.6 4.3 0.00 0.74 0.01 61 964.5
20260507213201 65 100 1.7 4.3 0.00 0.74 0.01 58 964.4
20260507212701 65 345 0.9 5.2 0.00 0.74 0.01 58 964.3
20260507212200 65 74 0.9 5.2 0.00 0.74 0.01 59 964.2
20260507211200 65 108 2.6 4.3 0.00 0.74 0.01 58 964.3
20260507210701 65 110 1.7 5.2 0.00 0.74 0.01 57 964.3
20260507210201 65 134 1.7 5.2 0.00 0.74 0.01 56 964.2
20260507205700 65 10 0.9 2.6 0.00 0.74 0.01 56 964.2
20260507205200 65 293 0.9 4.3 0.00 0.74 0.01 57 964.3
20260507204701 65 117 2.6 5.2 0.00 0.74 0.01 57 964.2
20260507204200 65 90 0.9 4.3 0.00 0.74 0.01 55 964.2
20260507203701 65 93 1.7 4.3 0.00 0.74 0.01 57 964.3
20260507203202 65 62 1.7 4.3 0.00 0.74 0.01 56 964.3
20260507202700 65 88 0.9 2.6 0.00 0.74 0.01 56 964.4
20260507202200 65 144 0.9 2.6 0.00 0.74 0.01 55 964.4
20260507201701 65 303 0.9 2.6 0.00 0.74 0.01 55 964.5
20260507201200 64 349 1.7 2.6 0.00 0.74 0.01 56 964.3
20260507200700 64 210 0.9 2.6 0.00 0.74 0.01 56 964.5
20260507200201 64 300 0.9 4.3 0.00 0.74 0.01 55 964.5
20260507195701 63 92 0.9 2.6 0.00 0.74 0.01 56 964.6
20260507195201 62 288 0.9 2.6 0.00 0.74 0.01 55 964.7
20260507194700 62 152 1.7 2.6 0.00 0.74 0.01 56 964.8
20260507194201 62 140 0.9 2.6 0.00 0.74 0.01 55 964.9
20260507193201 62 166 4.3 7.0 0.00 0.74 0.01 55 965.0
20260507192700 62 144 2.6 6.1 0.00 0.74 0.01 55 965.0
20260507192201 62 167 2.6 5.2 0.00 0.74 0.01 55 964.9
20260507191701 62 40 2.6 6.1 0.00 0.74 0.01 55 965.2
20260507190700 62 153 2.6 5.2 0.00 0.74 0.01 55 965.3
20260507190201 62 304 1.7 2.6 0.00 0.74 0.01 57 965.4
20260507185701 62 141 2.6 4.3 0.00 0.74 0.01 55 965.4
20260507185202 62 162 0.9 1.7 0.00 0.74 0.01 55 965.4
20260507184201 61 291 2.6 4.3 0.00 0.74 0.01 56 965.3
20260507183700 61 158 2.6 6.1 0.00 0.74 0.01 60 965.4
20260507183200 61 155 4.3 7.8 0.00 0.74 0.01 59 965.5
20260507182701 62 179 2.6 6.1 0.00 0.74 0.01 55 965.5
20260507182201 63 166 3.5 7.0 0.00 0.74 0.01 55 965.6
20260507181700 63 142 1.7 6.1 0.00 0.74 0.01 55 965.5
20260507181200 63 189 1.7 5.2 0.00 0.74 0.01 52 965.5
20260507180700 63 141 0.9 5.2 0.00 0.74 0.01 55 965.5
20260507180200 63 170 2.6 6.1 0.00 0.74 0.01 53 965.6
20260507175701 63 113 1.7 2.6 0.00 0.74 0.01 55 965.6
20260507175200 61 130 0.9 1.7 0.00 0.74 0.01 57 965.5
20260507174701 60 356 2.6 5.2 0.00 0.74 0.01 55 965.8
20260507174200 60 162 1.7 4.3 0.00 0.74 0.01 56 966.1
20260507173701 60 145 2.6 6.1 0.00 0.74 0.01 57 966.1
20260507173200 59 164 2.6 5.2 0.00 0.74 0.01 57 966.1
20260507172701 59 113 2.6 6.1 0.00 0.74 0.01 58 966.2
20260507172200 59 171 2.6 5.2 0.00 0.74 0.01 58 966.3
20260507171701 59 169 2.6 5.2 0.00 0.74 0.01 58 966.4
20260507171200 58 170 2.6 6.1 0.00 0.74 0.01 59 966.5
20260507170700 58 168 2.6 5.2 0.00 0.74 0.01 61 966.6
20260507170200 59 145 2.6 6.1 0.00 0.74 0.01 61 966.8
20260507165701 59 167 5.2 6.1 0.00 0.74 0.01 60 966.9
20260507165200 60 238 0.9 2.6 0.00 0.74 0.01 57 966.9
20260507164700 60 125 1.7 2.6 0.00 0.74 0.01 58 966.9
20260507164201 60 117 2.6 5.2 0.00 0.74 0.01 61 966.8
20260507163701 59 165 2.6 5.2 0.00 0.74 0.01 60 966.6
20260507162701 58 213 0.9 2.6 0.00 0.74 0.01 63 967.0
20260507162201 57 183 2.6 5.2 0.00 0.74 0.01 64 967.0
20260507161201 57 168 3.5 6.1 0.00 0.74 0.01 67 967.4
20260507160700 57 193 0.9 2.6 0.00 0.74 0.01 64 967.4
20260507155701 56 279 0.9 5.2 0.00 0.74 0.01 66 967.6
20260507155201 56 298 1.7 5.2 0.00 0.74 0.01 66 967.8
20260507154701 56 178 1.7 2.6 0.00 0.74 0.01 66 967.7
20260507154200 56 282 1.7 4.3 0.00 0.74 0.01 67 967.9
20260507153701 56 151 0.9 1.7 0.00 0.74 0.01 68 967.7
20260507153201 56 264 0.9 5.2 0.00 0.74 0.01 70 967.8
20260507152701 56 163 3.5 5.2 0.00 0.74 0.01 69 967.6
20260507152201 56 158 1.7 4.3 0.00 0.74 0.01 68 967.7
20260507151700 55 242 0.9 5.2 0.00 0.74 0.01 74 967.7
20260507151200 55 258 0.9 2.6 0.00 0.74 0.01 72 967.7
20260507150701 54 227 0.9 2.6 0.00 0.74 0.01 72 967.8
20260507145701 53 308 0.9 2.6 0.00 0.74 0.01 76 968.0
20260507144700 53 282 0.9 2.6 0.00 0.74 0.01 78 968.2
20260507144200 53 242 1.7 2.6 0.00 0.74 0.01 79 968.2
20260507143700 53 133 1.7 2.6 0.00 0.74 0.01 79 968.2
20260507143201 53 133 0.9 2.6 0.00 0.74 0.01 79 968.3
20260507142701 53 299 1.7 4.3 0.00 0.74 0.01 80 968.5
20260507142201 53 98 1.7 2.6 0.00 0.74 0.01 80 968.6
20260507141700 53 153 1.7 2.6 0.00 0.74 0.01 81 968.6
20260507141200 53 132 1.7 2.6 0.00 0.74 0.01 81 968.6
20260507140201 53 125 1.7 2.6 0.00 0.77 0.01 81 968.7
20260507135701 53 143 2.6 4.3 0.00 0.77 0.01 80 968.8
20260507135201 53 177 1.7 2.6 0.00 0.77 0.01 80 968.7
20260507134700 53 107 0.9 2.6 0.00 0.77 0.01 80 968.7
20260507134201 53 314 0.9 2.6 0.00 0.77 0.01 82 968.8
20260507133701 53 147 0.9 1.7 0.00 0.77 0.01 80 968.7
20260507133201 53 313 0.9 1.7 0.00 0.77 0.01 79 968.9
20260507132700 53 109 0.9 1.7 0.00 0.77 0.01 80 968.8
20260507131701 53 291 0.9 2.6 0.00 0.77 0.01 82 968.8
20260507131201 53 294 0.9 2.6 0.00 0.77 0.01 82 968.8
20260507130701 53 291 0.9 1.7 0.00 0.77 0.01 80 968.9
20260507125700 52 279 0.9 1.7 0.00 0.78 0.01 82 968.9
20260507125201 52 212 0.0 0.9 0.00 0.78 0.01 82 969.0
20260507124200 52 284 0.0 1.7 0.00 0.78 0.01 82 969.0
20260507123701 53 169 1.7 1.7 0.00 0.79 0.01 81 969.0
20260507123201 53 180 0.9 1.7 0.00 0.81 0.01 82 968.8
20260507122701 52 167 0.9 1.7 0.00 0.82 0.01 81 968.8
20260507122201 52 186 0.9 1.7 0.00 0.83 0.01 82 968.8
20260507121702 52 269 0.9 1.7 0.00 0.83 0.01 84 968.7
20260507121201 52 276 0.9 1.7 0.00 0.84 0.01 83 968.5
20260507120701 52 275 0.0 0.9 0.00 0.85 0.01 83 968.3
20260507120200 52 269 0.0 0.9 0.00 0.85 0.01 84 968.4
20260507115701 52 201 0.9 1.7 0.00 0.86 0.01 84 968.5
20260507115201 52 170 1.7 1.7 0.00 0.88 0.01 84 968.5
20260507114700 52 149 0.9 1.7 0.00 0.88 0.01 84 968.4
20260507114201 52 167 1.7 1.7 0.00 0.88 0.01 84 968.5
20260507113701 52 156 1.7 2.6 0.00 0.88 0.01 83 968.3
20260507113201 52 161 1.7 1.7 0.00 0.88 0.01 84 968.3
20260507112701 52 136 0.9 2.6 0.00 0.88 0.01 85 968.4
20260507111701 52 192 0.9 1.7 0.00 0.88 0.01 86 968.3
20260507111201 52 209 0.0 0.9 0.00 0.89 0.01 89 968.3
20260507110701 52 146 1.7 1.7 0.00 0.89 0.01 89 968.2
20260507110200 52 159 0.9 1.7 0.00 0.89 0.01 88 968.1
20260507105701 52 162 0.9 1.7 0.00 0.89 0.01 88 968.0
20260507105201 51 188 0.9 1.7 0.00 0.89 0.01 86 968.0
20260507104700 52 188 0.9 1.7 0.00 0.89 0.01 88 967.9
20260507104202 51 154 0.0 0.9 0.00 0.90 0.01 89 967.9
20260507103701 51 131 0.9 1.7 0.00 0.90 0.01 89 967.7
20260507102700 52 162 1.7 1.7 0.00 0.91 0.01 90 968.0
20260507102202 52 165 0.9 1.7 0.00 0.91 0.01 90 968.0
20260507101701 52 162 1.7 2.6 0.00 0.91 0.01 88 968.0
20260507101201 52 159 1.7 2.6 0.00 0.91 0.01 88 968.0
20260507100200 52 174 0.9 1.7 0.00 0.91 0.01 85 968.0
20260507095201 52 171 1.7 2.6 0.00 0.91 0.01 86 967.8
20260507094702 52 175 0.9 1.7 0.00 0.91 0.01 86 967.8
20260507094201 52 163 1.7 1.7 0.00 0.91 0.01 87 967.7
20260507093702 52 169 0.9 1.7 0.00 0.91 0.01 89 967.8
20260507093201 52 145 0.9 1.7 0.00 0.91 0.01 89 967.7
20260507092701 52 152 1.7 2.6 0.00 0.91 0.01 87 967.8
20260507090701 52 162 0.9 2.6 0.00 0.91 0.01 90 967.8
20260507090201 52 156 1.7 2.6 0.00 0.91 0.01 90 967.7
20260507085700 52 167 0.9 1.7 0.00 0.91 0.01 89 967.7
20260507085201 52 164 0.9 2.6 0.00 0.91 0.01 88 967.5
20260507084701 52 173 1.7 2.6 0.00 0.91 0.01 88 967.4
20260507084201 52 150 2.6 4.3 0.00 0.91 0.01 88 967.5
20260507083201 52 179 0.9 2.6 0.00 0.91 0.01 87 967.5
20260507082701 52 94 1.7 1.7 0.00 0.91 0.01 87 967.5
20260507082202 53 177 1.7 1.7 0.00 0.91 0.01 87 967.6
20260507081701 53 166 1.7 2.6 0.00 0.91 0.01 87 967.6
20260507081202 53 159 0.9 1.7 0.00 0.91 0.01 90 967.7
20260507080700 53 177 1.7 1.7 0.00 0.91 0.01 90 967.9
20260507080201 53 152 0.9 2.6 0.00 0.91 0.01 89 968.0
20260507075700 53 173 1.7 4.3 0.00 0.91 0.01 88 967.8
20260507075201 53 163 1.7 2.6 0.00 0.91 0.01 89 967.7
20260507074701 53 154 0.9 1.7 0.00 0.91 0.01 89 967.7
20260507073701 53 172 0.9 0.9 0.00 0.91 0.01 88 967.7
20260507073201 53 170 0.0 1.7 0.00 0.91 0.01 89 967.6
20260507072701 53 212 0.9 1.7 0.00 0.91 0.01 88 967.5
20260507072201 54 203 0.9 4.3 0.00 0.91 0.01 88 967.3
20260507071701 54 134 1.7 6.1 0.00 0.91 0.01 89 967.1
20260507071201 54 191 1.7 4.3 0.00 0.91 0.01 87 967.1
20260507070701 54 153 1.7 2.6 0.00 0.91 0.01 89 967.2
20260507070201 54 229 1.7 2.6 0.00 0.91 0.01 90 967.3
20260507065700 54 240 0.9 4.3 0.00 0.91 0.01 90 967.1
20260507065201 55 138 2.6 4.3 0.00 0.91 0.01 89 967.2
20260507064701 55 149 1.7 4.3 0.00 0.91 0.01 90 967.1
20260507064201 55 150 1.7 5.2 0.00 0.91 0.01 90 967.2
20260507063700 55 171 1.7 4.3 0.00 0.91 0.01 91 967.3
20260507063200 55 156 1.7 2.6 0.00 0.91 0.01 91 967.3
20260507062701 55 234 0.9 1.7 0.00 0.91 0.01 91 967.3
20260507062202 55 173 0.9 2.6 0.00 0.91 0.01 91 967.2
20260507061701 55 179 0.9 2.6 0.00 0.91 0.01 91 967.1
20260507060701 56 156 1.7 4.3 0.00 0.91 0.01 92 967.0
20260507060200 56 124 0.9 1.7 0.00 0.91 0.01 92 967.3
20260507055701 56 180 1.7 4.3 0.00 0.91 0.01 91 967.5
20260507055201 56 186 1.7 2.6 0.01 0.91 0.01 92 967.5
20260507054701 56 212 0.9 2.6 0.01 0.91 0.01 92 967.5
20260507054200 56 171 2.6 2.6 0.01 0.91 0.01 92 967.4
20260507053701 56 167 2.6 4.3 0.01 0.91 0.01 92 967.6
20260507053201 56 195 2.6 4.3 0.01 0.91 0.01 93 967.5
20260507052701 56 180 1.7 4.3 0.01 0.91 0.01 92 967.4
20260507052201 57 202 2.6 5.2 0.01 0.91 0.01 91 966.9
20260507051701 57 161 1.7 5.2 0.01 0.91 0.01 92 967.1
20260507051201 57 144 1.7 5.2 0.01 0.91 0.01 92 967.2
20260507045201 58 288 0.9 4.3 0.01 0.91 0.01 94 966.7
20260507044701 58 233 0.9 4.3 0.00 0.89 0.00 95 966.6
20260507044201 59 282 1.7 5.2 0.13 0.89 0.00 95 966.5
20260507043702 59 307 0.9 4.3 0.13 0.89 0.00 96 966.4
20260507043201 59 192 0.9 2.6 0.13 0.89 0.00 95 966.2
20260507042701 59 319 0.9 2.6 0.13 0.89 0.00 95 966.0
20260507042201 59 161 2.6 4.3 0.13 0.89 0.00 94 965.3
20260507041701 59 167 2.6 4.3 0.13 0.89 0.00 95 965.6
20260507041201 59 96 1.7 2.6 0.13 0.89 0.00 95 965.9
20260507040201 60 157 1.7 2.6 0.13 0.89 0.00 96 966.4
20260507035201 60 293 1.7 2.6 0.07 0.89 0.58 96 967.0
20260507034701 60 150 0.9 1.7 0.19 0.89 0.58 96 967.0
20260507034201 60 196 0.9 1.7 0.07 0.77 0.45 96 967.1
20260507033700 60 315 0.9 1.7 0.08 0.77 0.45 96 967.3
20260507033201 60 280 0.9 1.7 0.08 0.77 0.45 96 966.9
20260507032701 60 323 0.9 1.7 0.08 0.77 0.45 96 966.9
20260507031201 60 163 1.7 2.6 0.09 0.77 0.45 96 966.6
20260507030701 60 266 0.9 1.7 0.09 0.77 0.45 96 966.6
20260507025702 60 167 1.7 2.6 0.14 0.77 0.45 95 966.7
20260507025201 60 122 0.9 1.7 0.20 0.77 0.51 95 966.6
20260507024701 60 131 0.0 0.9 0.07 0.64 0.38 95 966.7
20260507021701 61 224 1.7 4.3 0.06 0.62 0.37 92 965.9
20260507021201 61 173 0.9 4.3 0.06 0.62 0.36 90 966.0
20260507020701 61 167 4.3 6.1 0.06 0.62 0.36 89 966.0
20260507020201 61 155 2.6 4.3 0.14 0.57 0.31 91 965.9
20260507015201 61 220 0.0 0.9 0.14 0.57 0.31 93 966.3
20260507014701 61 279 0.0 0.9 0.14 0.57 0.31 92 966.2
20260507014201 62 181 0.9 1.7 0.14 0.57 0.31 91 966.0
20260507012701 62 149 1.7 2.6 0.14 0.57 0.31 90 965.5
20260507012201 62 154 1.7 2.6 0.14 0.56 0.31 91 965.5
20260507011702 62 191 0.9 2.6 0.14 0.56 0.31 92 965.6
20260507010700 63 211 3.5 5.2 0.02 0.56 0.31 92 965.5
20260507010200 63 129 2.6 2.6 0.01 0.43 0.18 90 965.9
20260507005701 63 119 1.7 1.7 0.02 0.43 0.18 90 966.1
20260507005201 63 118 1.7 2.6 0.12 0.43 0.17 89 966.1
20260507004701 63 134 1.7 2.6 0.12 0.43 0.17 90 966.2
20260507003701 64 305 0.9 1.7 0.04 0.43 0.17 90 966.4
20260507002701 64 122 1.7 2.6 0.04 0.43 0.17 90 966.0